Tanger, Morocco

2:54 AM WET on May 22, 2018 (GMT +0000)
Tanger

Weather History for GMTT - October, 2013

Change the Weather History Date:

Sunday, October 20, 2013

  Actual Average Record
Temperature  
Mean Temperature 69 °F -  
Max Temperature 79 °F 68 °F 86 °F (2014)
Min Temperature 59 °F 53 °F 46 °F (1998)
Cooling Degree Days 4    
Growing Degree Days 19 (Base 50)    
Moisture  
Dew Point 58 °F    
Average Humidity 68    
Maximum Humidity 88    
Minimum Humidity 33    
Precipitation  
Precipitation 0.00 in 0.15 in - ()
Sea Level Pressure  
Sea Level Pressure 30.11 in    
Wind  
Wind Speed 5 mph ()    
Max Wind Speed 13 mph    
Max Gust Speed -    
Visibility 5.6 miles    
Events      
Averages and records for this station are not official NWS values.
T = Trace of Precipitation, MM = Missing Value Source: Averaged Metar Reports

Daily Weather History Graph

Daily Weather History Graph

Search for Another Location

Airport or City:

Astronomy

Oct. 20, 2013 Rise Set
Actual Time 7:34 AM WEST 6:41 PM WEST
Civil Twilight 7:08 AM WEST 7:07 PM WEST
Nautical Twilight 6:38 AM WEST 7:37 PM WEST
Astronomical Twilight 6:09 AM WEST 8:06 PM WEST
Moon 7:44 PM WEST (10/20) 8:55 AM WEST (10/20)
Length of Visible Light 11h 58m
Length of Day
11h 07m
Full, 98% of the Moon is Illuminated
Oct 20
Full
Oct 27
Last Quarter
Nov 3
New
Nov 10
First Quarter
Nov 17
Full

Hourly Weather History & Observations

Time (WEST) Temp. Dew Point Humidity Pressure Visibility Wind Dir Wind Speed Gust Speed Precip Events Conditions
12:00 AM 69.8 °F 62.6 °F 78% 30.09 in 5.0 mi SSW 9.2 mph - N/A   Mostly Cloudy
12:30 AM 69.8 °F 62.6 °F 78% 30.09 in 5.0 mi SSW 9.2 mph - N/A   Mostly Cloudy
1:00 AM 69 °F 63 °F 76% 30.11 in 5 mi SSW 6.9 mph - -   Mostly Cloudy
1:00 AM 69.8 °F 62.6 °F 78% 30.09 in 5.0 mi SSW 6.9 mph - N/A   Mostly Cloudy
1:30 AM 69.8 °F 64.4 °F 83% 30.09 in 3.7 mi WSW 6.9 mph - N/A   Mostly Cloudy
2:00 AM 68.0 °F 62.6 °F 83% 30.09 in 6.2 mi WNW 4.6 mph - N/A   Mostly Cloudy
2:30 AM 66.2 °F 60.8 °F 83% 30.09 in 6.2 mi WNW 4.6 mph - N/A   Mostly Cloudy
3:00 AM 66.2 °F 60.8 °F 83% 30.09 in - WNW 4.6 mph - N/A   Unknown
4:00 AM 67 °F 60 °F 72% 30.09 in - NW 4.6 mph - -  
4:00 AM 66.2 °F 60.8 °F 83% 30.06 in - NW 4.6 mph - N/A   Unknown
4:30 AM 66.2 °F 59.0 °F 78% 30.06 in - Calm Calm - N/A   Unknown
5:00 AM 64.4 °F 59.0 °F 83% 30.06 in - Calm Calm - N/A   Unknown
5:30 AM 62.6 °F 57.2 °F 82% 30.09 in - Variable 2.3 mph - N/A   Unknown
6:00 AM 60.8 °F 57.2 °F 88% 30.09 in 5.0 mi Calm Calm - N/A   Mostly Cloudy
6:30 AM 62.6 °F 57.2 °F 82% 30.09 in 5.0 mi Calm Calm - N/A   Mostly Cloudy
7:00 AM 60 °F 56 °F 83% 30.11 in 5 mi ENE 2.3 mph - -   Partly Cloudy
7:00 AM 60.8 °F 55.4 °F 82% 30.09 in 5.0 mi ENE 2.3 mph - N/A   Scattered Clouds
7:30 AM 59.0 °F 55.4 °F 88% 30.09 in 5.0 mi ENE 2.3 mph - N/A   Scattered Clouds
8:00 AM 60.8 °F 57.2 °F 88% 30.12 in 5.0 mi East 2.3 mph - N/A   Scattered Clouds
8:30 AM 60.8 °F 57.2 °F 88% 30.12 in 5.0 mi Variable 2.3 mph - N/A   Scattered Clouds
9:00 AM 64.4 °F 60.8 °F 88% 30.12 in 5.0 mi ESE 3.5 mph - N/A   Scattered Clouds
9:30 AM 68.0 °F 60.8 °F 78% 30.15 in 5.0 mi ESE 3.5 mph - N/A   Scattered Clouds
10:00 AM 73 °F 61 °F 56% 30.16 in 5 mi NE 2.3 mph - -   Scattered Clouds
10:00 AM 73.4 °F 60.8 °F 65% 30.15 in 5.0 mi Variable 2.3 mph - N/A   Scattered Clouds
10:30 AM 71.6 °F 57.2 °F 60% 30.15 in 6.2 mi NNW 3.5 mph - N/A   Scattered Clouds
11:00 AM 73.4 °F 57.2 °F 57% 30.15 in 6.2 mi Variable 2.3 mph - N/A   Scattered Clouds
11:30 AM 75.2 °F 57.2 °F 53% 30.15 in 6.2 mi NNW 5.8 mph - N/A   Scattered Clouds
12:00 PM 75.2 °F 55.4 °F 50% 30.15 in 6.2 mi WNW 6.9 mph - N/A   Scattered Clouds
12:30 PM 75.2 °F 53.6 °F 47% 30.15 in 6.2 mi WNW 5.8 mph - N/A   Scattered Clouds
1:00 PM 76 °F 52 °F 33% 30.15 in 6 mi WNW 4.6 mph - -   Partly Cloudy
1:00 PM 77.0 °F 51.8 °F 41% 30.15 in 6.2 mi WNW 4.6 mph - N/A   Scattered Clouds
1:30 PM 77.0 °F 50.0 °F 39% 30.12 in 6.2 mi NW 8.1 mph - N/A   Scattered Clouds
2:00 PM 78.8 °F 51.8 °F 39% 30.12 in 6.2 mi NW 9.2 mph - N/A   Scattered Clouds
2:30 PM 78.8 °F 51.8 °F 39% 30.09 in 6.2 mi NNW 8.1 mph - N/A   Scattered Clouds
3:00 PM 78.8 °F 48.2 °F 34% 30.09 in 6.2 mi NNW 10.4 mph - N/A   Scattered Clouds
3:30 PM 78.8 °F 53.6 °F 42% 30.09 in 6.2 mi NNW 11.5 mph - N/A   Scattered Clouds
4:00 PM 77 °F 55 °F 36% 30.11 in 6 mi NNW 11.5 mph - -   Scattered Clouds
4:00 PM 77.0 °F 55.4 °F 47% 30.09 in 6.2 mi NNW 11.5 mph - N/A   Scattered Clouds
4:30 PM 77.0 °F 55.4 °F 47% 30.09 in 6.2 mi NNW 11.5 mph - N/A   Scattered Clouds
5:00 PM 75.2 °F 55.4 °F 50% 30.09 in 6.2 mi NNW 11.5 mph - N/A   Scattered Clouds
5:30 PM 73.4 °F 59.0 °F 61% 30.09 in 6.2 mi NNW 12.7 mph - N/A   Scattered Clouds
6:00 PM 71.6 °F 59.0 °F 64% 30.09 in 6.2 mi NW 11.5 mph - N/A   Scattered Clouds
6:30 PM 69.8 °F 59.0 °F 68% 30.09 in 6.2 mi NNW 10.4 mph - N/A   Scattered Clouds
7:00 PM 69 °F 60 °F 64% 30.10 in 6 mi NNW 9.2 mph - -   Scattered Clouds
7:00 PM 69.8 °F 59.0 °F 68% 30.09 in 6.2 mi NNW 10.4 mph - N/A   Scattered Clouds
7:30 PM 68.0 °F 59.0 °F 73% 30.09 in 6.2 mi NNW 8.1 mph - N/A   Scattered Clouds
8:00 PM 66.2 °F 59.0 °F 78% 30.09 in 6.2 mi East 3.5 mph - N/A   Scattered Clouds
8:30 PM 66.2 °F 60.8 °F 83% 30.09 in 6.2 mi Variable 1.2 mph - N/A   Scattered Clouds
9:00 PM 64.4 °F 57.2 °F 77% 30.09 in 5.0 mi Variable 2.3 mph - N/A   Scattered Clouds
9:30 PM 62.6 °F 57.2 °F 82% 30.09 in 5.0 mi Variable 2.3 mph - N/A   Partly Cloudy
10:00 PM 63 °F 57 °F 75% 30.12 in 5 mi East 2.3 mph - -   Scattered Clouds
10:00 PM 62.6 °F 57.2 °F 82% 30.09 in 5.0 mi Variable 2.3 mph - N/A   Partly Cloudy
10:30 PM 62.6 °F 57.2 °F 82% 30.12 in 5.0 mi ENE 3.5 mph - N/A   Partly Cloudy
11:00 PM 62.6 °F 55.4 °F 77% 30.12 in 5.0 mi Variable 2.3 mph - N/A   Partly Cloudy
11:30 PM 60.8 °F 55.4 °F 82% 30.09 in 5.0 mi Calm Calm - N/A   Partly Cloudy